WetterOnline ( https://www.wetteronline.ch )

Wetter aktuell Gottfrieding

Aktuelles Wetter: Gottfrieding (350m)

6-stündlich | Neueste Meldungen
Ortszeit Temperatur Wetter
Mo, 13.07. 2:00 9.2° C wolkenlos
So, 12.07. 20:00 19.3° C wolkenlos
So, 12.07. 14:00 19.8° C bewölkt
So, 12.07. 8:00 12.8° C bedeckt
So, 12.07. 2:00 10.4° C Nebel
Sa, 11.07. 20:00 16.8° C fast wolkenlos
Sa, 11.07. 14:00 17.5° C bewölkt
Sa, 11.07. 8:00 15.3° C leichter Regen
Ortszeit Temperatur Wetter
Mo, 13.07. 3:30 8.6° C fast wolkenlos
Mo, 13.07. 3:20 8.6° C fast wolkenlos
Mo, 13.07. 3:10 8.8° C fast wolkenlos
Mo, 13.07. 3:00 8.6° C leicht bewölkt
Mo, 13.07. 2:50 8.6° C leicht bewölkt
Mo, 13.07. 2:40 8.6° C leicht bewölkt
Mo, 13.07. 2:30 9.6° C leicht bewölkt
Mo, 13.07. 2:00 9.2° C wolkenlos
Mo, 13.07. 1:30 9.6° C Nebel
Mo, 13.07. 1:00 9.7° C wolkenlos
Mo, 13.07. 0:30 10.3° C wolkenlos
Mo, 13.07. 0:00 10.7° C wolkenlos
Ortszeit Relative Feuchte Sichtweite
Mo, 13.07. 2:00 100% 9 km
So, 12.07. 20:00 56% >70 km
So, 12.07. 14:00 47% >70 km
So, 12.07. 8:00 95% 28 km
So, 12.07. 2:00 100% 0.4 km
Sa, 11.07. 20:00 84% >70 km
Sa, 11.07. 14:00 75% 50 km
Sa, 11.07. 8:00 96% 26 km
Ortszeit Relative Feuchte Sichtweite
Mo, 13.07. 3:30 100% 12 km
Mo, 13.07. 3:20 100% -
Mo, 13.07. 3:10 100% -
Mo, 13.07. 3:00 100% 7 km
Mo, 13.07. 2:50 100% -
Mo, 13.07. 2:40 99% -
Mo, 13.07. 2:30 100% 8 km
Mo, 13.07. 2:00 100% 9 km
Mo, 13.07. 1:30 99% 0.2 km
Mo, 13.07. 1:00 98% 12 km
Mo, 13.07. 0:30 99% 13 km
Mo, 13.07. 0:00 99% 25 km
Ortszeit Niederschlagsmenge Niederschlagsart
Mo, 13.07. 2:00 0.0 l/m2 in 6 Std. -
So, 12.07. 20:00 0.0 l/m2 in 12 Std. -
So, 12.07. 14:00 0.0 l/m2 in 6 Std. -
So, 12.07. 8:00 0.1 l/m2 in 12 Std. -
So, 12.07. 2:00 0.0 l/m2 in 6 Std. -
Sa, 11.07. 20:00 11 l/m2 in 12 Std. Regen
Sa, 11.07. 14:00 9 l/m2 in 6 Std. Regen
Sa, 11.07. 8:00 7 l/m2 in 12 Std. Regen
Ortszeit Niederschlagsmenge Niederschlagsart
Mo, 13.07. 3:30 0.0 l/m2 in 1 Std. -
Mo, 13.07. 3:20 keine Meldung -
Mo, 13.07. 3:10 keine Meldung -
Mo, 13.07. 3:00 0.0 l/m2 in 1 Std. -
Mo, 13.07. 2:50 keine Meldung -
Mo, 13.07. 2:40 keine Meldung -
Mo, 13.07. 2:30 0.0 l/m2 in 1 Std. -
Mo, 13.07. 2:00 0.0 l/m2 in 1 Std. -
Mo, 13.07. 1:30 0.0 l/m2 in 1 Std. -
Mo, 13.07. 1:00 0.0 l/m2 in 1 Std. -
Mo, 13.07. 0:30 0.0 l/m2 in 1 Std. -
Mo, 13.07. 0:00 0.0 l/m2 in 1 Std. -
Ortszeit Stärke Spitze Richtung
km/h Bft. km/h Grad Sektor
Mo, 13.07. 2:00 4 1 11 130° SO
So, 12.07. 20:00 9 2 20 70° O
So, 12.07. 14:00 7 2 22 30° NO
So, 12.07. 8:00 6 1 9 90° O
So, 12.07. 2:00 4 1 14 360° N
Sa, 11.07. 20:00 7 2 25 140° SO
Sa, 11.07. 14:00 13 3 22 340° N
Sa, 11.07. 8:00 7 2 18 260° W
Ortszeit Stärke Spitze Richtung
km/h Bft. km/h Grad Sektor
Mo, 13.07. 3:30 4 1 4 90° O
Mo, 13.07. 3:20 4 1 - 90° O
Mo, 13.07. 3:10 2 1 - 150° SO
Mo, 13.07. 3:00 2 1 4 40° NO
Mo, 13.07. 2:50 2 1 - 40° NO
Mo, 13.07. 2:40 4 1 - 50° NO
Mo, 13.07. 2:30 0 0 4 - -
Mo, 13.07. 2:00 4 1 4 130° SO
Mo, 13.07. 1:30 0 0 4 - -
Mo, 13.07. 1:00 0 0 4 - -
Mo, 13.07. 0:30 0 0 4 - -
Mo, 13.07. 0:00 4 1 4 170° S
Ortszeit Untergrenze Bedeckung Gattung
total tief tief mittel hoch
Mo, 13.07. 2:00 - 0/8 0/8 - - -
So, 12.07. 20:00 - 0/8 0/8 - - -
So, 12.07. 14:00 2400 m 7/8 7/8 - - -
So, 12.07. 8:00 180 m 8/8 8/8 - - -
So, 12.07. 2:00 <30 m 1/8 0/8 - - -
Sa, 11.07. 20:00 1500 m 0/8 0/8 - - -
Sa, 11.07. 14:00 660 m 7/8 6/8 - - -
Sa, 11.07. 8:00 1320 m 7/8 7/8 - - -
Ortszeit Bedeckungsgrad in Achtel und Wolkenuntergrenze
Mo, 13.07. 3:30 1(9000m)
Mo, 13.07. 3:20 1(9000m)
Mo, 13.07. 3:10 1(9000m)
Mo, 13.07. 3:00 3(9000m) 4(9000m)
Mo, 13.07. 2:50 3(9000m) 4(9000m)
Mo, 13.07. 2:40 2(9000m) 3(9000m) 5(9000m)
Mo, 13.07. 2:30 1(9000m) 4(9000m)
Mo, 13.07. 2:00 keine Wolken
Mo, 13.07. 1:30 keine Wolken
Mo, 13.07. 1:00 keine Wolken
Mo, 13.07. 0:30 keine Wolken
Mo, 13.07. 0:00 keine Wolken
Ortszeit Luftdruck NN (hPa) Tendenz (hPa in 3 Std.)
Mo, 13.07. 2:00 1026 - 0,5
So, 12.07. 20:00 1024 - 0,4
So, 12.07. 14:00 1025 - 0,2
So, 12.07. 8:00 1026 + 1,1
So, 12.07. 2:00 1025 + 0,1
Sa, 11.07. 20:00 1023 + 1,0
Sa, 11.07. 14:00 1021 + 1,0
Sa, 11.07. 8:00 1019 + 1,4
Ortszeit Luftdruck NN (hPa) Tendenz (hPa in 3 Std.)
Mo, 13.07. 3:30 1026 - 0,4
Mo, 13.07. 3:20 1026 keine Meldung
Mo, 13.07. 3:10 1026 keine Meldung
Mo, 13.07. 3:00 1026 - 0,3
Mo, 13.07. 2:50 1026 keine Meldung
Mo, 13.07. 2:40 1026 keine Meldung
Mo, 13.07. 2:30 1026 - 0,4
Mo, 13.07. 2:00 1026 - 0,5
Mo, 13.07. 1:30 1026 - 0,4
Mo, 13.07. 1:00 1026 - 0,2
Mo, 13.07. 0:30 1026 0,0
Mo, 13.07. 0:00 1026 + 0,1
Ortszeit Schneehöhe (cm)
Mo, 13.07. 2:00 -
So, 12.07. 20:00 -
So, 12.07. 14:00 -
So, 12.07. 8:00 -
So, 12.07. 2:00 -
Sa, 11.07. 20:00 -
Sa, 11.07. 14:00 -
Sa, 11.07. 8:00 -
Ortszeit Schneehöhe (cm)
Mo, 13.07. 3:30 -
Mo, 13.07. 3:20 -
Mo, 13.07. 3:10 -
Mo, 13.07. 3:00 -
Mo, 13.07. 2:50 -
Mo, 13.07. 2:40 -
Mo, 13.07. 2:30 -
Mo, 13.07. 2:00 -
Mo, 13.07. 1:30 -
Mo, 13.07. 1:00 -
Mo, 13.07. 0:30 -
Mo, 13.07. 0:00 -
Link zu dieser Seite / Seite empfehlen

Das Wetter in ...